Location: ???????
(55.3754°N, 39.3545°E)
Time: 20:55:02
(UTC+00:00)

Cosmos 2173 Rocket - Pass Details

Date: 14 April 2026
Orbit: 944 x 999 km, 83.0° (Epoch: 16 May)

Event Time Altitude Azimuth Distance (km) Brightness Sun altitude
Exits shadow 20:38:02 54° 149° (SSE) 1,135 3.9 -24.3°
Maximum altitude 20:39:14 67° 96° (E) 1,021 3.9 -24.3°
Drops below altitude 10° 20:45:18 10° 15° (NNE) 2,681 7.2 -24.5°
Sets 20:47:49 0° 13° (NNE) 3,634 8.1 -24.6°
